| time (UTC) | temp C | wind direction | speed KPH | gust KPH | rain 1hr cm | rain 24hr cm | rain mn cm | humidity % | barometer mb |
| 20260906023106 | 15 | 0 | 0.0 | 0.0 | 0.00 | 0.08 | 0.00 | 93 | 1023.8 |
| 20260906022003 | 15 | 0 | 0.0 | 0.0 | 0.00 | 0.08 | 0.00 | 93 | 1023.8 |
| 20260906021107 | 15 | 0 | 0.0 | 0.0 | 0.00 | 0.08 | 0.00 | 93 | 1023.8 |
| 20260906020003 | 15 | 0 | 0.0 | 0.0 | 0.00 | 0.08 | 0.00 | 93 | 1023.8 |
| 20260906015106 | 15 | 0 | 0.0 | 0.0 | 0.00 | 0.08 | 0.00 | 93 | 1023.8 |
| 20260906014106 | 15 | 0 | 0.0 | 0.0 | 0.00 | 0.08 | 0.00 | 93 | 1023.8 |
| 20260906013107 | 15 | 353 | 0.0 | 0.0 | 0.00 | 0.08 | 0.00 | 92 | 1023.9 |
| 20260906012107 | 15 | 0 | 0.0 | 0.0 | 0.00 | 0.08 | 0.00 | 92 | 1023.9 |
| 20260906011106 | 15 | 0 | 0.0 | 0.0 | 0.00 | 0.08 | 0.00 | 92 | 1023.8 |
| 20260906010106 | 15 | 0 | 0.0 | 0.0 | 0.00 | 0.08 | 0.00 | 92 | 1023.7 |
| 20260906005107 | 15 | 0 | 0.0 | 0.0 | 0.00 | 0.08 | 0.00 | 92 | 1023.7 |
| 20260906004003 | 15 | 0 | 0.0 | 0.0 | 0.00 | 0.08 | 0.00 | 92 | 1023.6 |
| 20260906003106 | 15 | 0 | 0.0 | 0.0 | 0.00 | 0.08 | 0.00 | 91 | 1023.6 |
| 20260906002003 | 15 | 0 | 0.0 | 0.0 | 0.00 | 0.08 | 0.00 | 91 | 1023.6 |
| 20260906001107 | 15 | 0 | 0.0 | 0.0 | 0.00 | 0.08 | 0.00 | 91 | 1023.6 |
| 20260906000004 | 15 | 0 | 0.0 | 0.0 | 0.00 | 0.08 | 0.00 | 90 | 1023.5 |
| 20260905235106 | 15 | 0 | 0.0 | 0.0 | 0.00 | 0.08 | 0.00 | 90 | 1023.4 |
| 20260905234003 | 15 | 0 | 0.0 | 0.0 | 0.00 | 0.08 | 0.00 | 90 | 1023.2 |
| 20260905233004 | 16 | 0 | 0.0 | 0.0 | 0.00 | 0.08 | 0.00 | 90 | 1023.2 |
| 20260905232107 | 16 | 0 | 0.0 | 0.0 | 0.00 | 0.08 | 0.00 | 90 | 1023.2 |
| 20260905231003 | 16 | 0 | 0.0 | 0.0 | 0.00 | 0.08 | 0.00 | 89 | 1023.2 |
| 20260905230106 | 16 | 0 | 0.0 | 0.0 | 0.00 | 0.08 | 0.00 | 89 | 1023.1 |
| 20260905225003 | 16 | 0 | 0.0 | 0.0 | 0.00 | 0.08 | 0.00 | 89 | 1023.2 |
| 20260905224004 | 16 | 0 | 0.0 | 0.0 | 0.00 | 0.08 | 0.00 | 89 | 1023.1 |
| 20260905223004 | 16 | 0 | 0.0 | 0.0 | 0.00 | 0.08 | 0.00 | 89 | 1023.1 |
| 20260905222106 | 17 | 0 | 0.0 | 0.0 | 0.00 | 0.08 | 0.00 | 88 | 1023.1 |
| 20260905221003 | 17 | 353 | 0.0 | 0.0 | 0.00 | 0.08 | 0.00 | 88 | 1023.1 |
| 20260905215004 | 17 | 0 | 0.0 | 0.0 | 0.00 | 0.08 | 0.08 | 88 | 1022.9 |
| 20260905214003 | 17 | 0 | 0.0 | 0.0 | 0.00 | 0.08 | 0.08 | 88 | 1022.8 |
| 20260905213003 | 17 | 0 | 0.0 | 0.0 | 0.00 | 0.08 | 0.08 | 88 | 1022.8 |
| 20260905212003 | 17 | 0 | 0.0 | 0.0 | 0.00 | 0.08 | 0.08 | 88 | 1022.6 |
| 20260905211106 | 18 | 0 | 0.0 | 0.0 | 0.00 | 0.08 | 0.08 | 88 | 1022.4 |
| 20260905210004 | 18 | 0 | 0.0 | 0.0 | 0.00 | 0.08 | 0.08 | 87 | 1022.4 |
| 20260905205106 | 18 | 0 | 0.0 | 0.0 | 0.00 | 0.08 | 0.08 | 87 | 1022.5 |
| 20260905204106 | 18 | 0 | 0.0 | 0.0 | 0.00 | 0.08 | 0.08 | 87 | 1022.5 |
| 20260905203003 | 18 | 353 | 0.0 | 0.0 | 0.00 | 0.08 | 0.08 | 86 | 1022.4 |
| 20260905202107 | 18 | 0 | 0.0 | 0.0 | 0.00 | 0.08 | 0.08 | 86 | 1022.3 |
| 20260905201107 | 18 | 0 | 0.0 | 0.0 | 0.00 | 0.08 | 0.08 | 86 | 1022.3 |
| 20260905200106 | 18 | 0 | 0.0 | 0.0 | 0.00 | 0.08 | 0.08 | 86 | 1021.9 |
| 20260905195106 | 18 | 348 | 0.0 | 1.6 | 0.00 | 0.08 | 0.08 | 86 | 1021.9 |
| 20260905194004 | 18 | 346 | 0.0 | 0.0 | 0.00 | 0.08 | 0.08 | 85 | 1021.8 |
| 20260905193107 | 18 | 0 | 0.0 | 0.0 | 0.00 | 0.08 | 0.08 | 84 | 1021.6 |
| 20260905192003 | 18 | 346 | 0.0 | 0.0 | 0.00 | 0.08 | 0.08 | 83 | 1021.3 |
| 20260905191003 | 19 | 0 | 0.0 | 0.0 | 0.00 | 0.08 | 0.08 | 82 | 1021.2 |
| 20260905190004 | 19 | 346 | 0.0 | 1.6 | 0.00 | 0.08 | 0.08 | 82 | 1021.0 |
| 20260905185003 | 18 | 343 | 0.0 | 1.6 | 0.00 | 0.08 | 0.08 | 83 | 1020.9 |
| 20260905184106 | 18 | 334 | 0.0 | 1.6 | 0.00 | 0.08 | 0.08 | 85 | 1021.0 |
| 20260905183004 | 18 | 280 | 0.0 | 0.0 | 0.00 | 0.08 | 0.08 | 86 | 1020.9 |
| 20260905182003 | 18 | 280 | 0.0 | 0.0 | 0.00 | 0.08 | 0.08 | 86 | 1020.8 |
| 20260905181003 | 18 | 0 | 0.0 | 0.0 | 0.00 | 0.08 | 0.08 | 86 | 1020.7 |
| 20260905180106 | 18 | 0 | 0.0 | 0.0 | 0.00 | 0.08 | 0.08 | 86 | 1020.7 |
| 20260905175107 | 18 | 0 | 0.0 | 0.0 | 0.00 | 0.08 | 0.08 | 85 | 1020.4 |
| 20260905174106 | 19 | 276 | 0.0 | 1.6 | 0.00 | 0.08 | 0.08 | 83 | 1020.2 |
| 20260905173106 | 19 | 276 | 0.0 | 0.0 | 0.00 | 0.08 | 0.08 | 83 | 1020.0 |
| 20260905172107 | 20 | 276 | 0.0 | 0.0 | 0.00 | 0.08 | 0.08 | 83 | 1020.0 |
| 20260905171107 | 20 | 276 | 0.0 | 1.6 | 0.00 | 0.08 | 0.08 | 81 | 1020.1 |
| 20260905170003 | 20 | 276 | 0.0 | 0.0 | 0.00 | 0.08 | 0.08 | 82 | 1019.9 |
| 20260905165003 | 20 | 276 | 0.0 | 0.0 | 0.00 | 0.08 | 0.08 | 82 | 1019.8 |
| 20260905164107 | 21 | 276 | 0.0 | 0.0 | 0.00 | 0.08 | 0.08 | 82 | 1019.7 |
| 20260905163004 | 21 | 276 | 0.0 | 0.0 | 0.00 | 0.08 | 0.08 | 82 | 1019.6 |
| 20260905162003 | 21 | 276 | 0.0 | 0.0 | 0.00 | 0.08 | 0.08 | 81 | 1019.6 |
| 20260905161106 | 21 | 276 | 0.0 | 0.0 | 0.00 | 0.08 | 0.08 | 81 | 1019.6 |
| 20260905160004 | 22 | 276 | 0.0 | 1.6 | 0.00 | 0.08 | 0.08 | 81 | 1019.6 |
| 20260905155107 | 22 | 276 | 0.0 | 1.6 | 0.00 | 0.08 | 0.08 | 80 | 1019.7 |
| 20260905154106 | 22 | 276 | 0.0 | 0.0 | 0.00 | 0.08 | 0.08 | 78 | 1019.6 |
| 20260905153106 | 22 | 276 | 0.0 | 1.6 | 0.00 | 0.08 | 0.08 | 77 | 1019.4 |
| 20260905152106 | 22 | 276 | 0.0 | 3.2 | 0.00 | 0.08 | 0.08 | 73 | 1019.6 |
| 20260905151107 | 22 | 276 | 0.0 | 0.0 | 0.00 | 0.08 | 0.08 | 79 | 1019.5 |
| 20260905150004 | 21 | 276 | 0.0 | 1.6 | 0.08 | 0.08 | 0.08 | 84 | 1019.7 |
| 20260905145106 | 21 | 276 | 0.0 | 0.0 | 0.08 | 0.08 | 0.08 | 82 | 1019.8 |
| 20260905144003 | 21 | 276 | 0.0 | 0.0 | 0.08 | 0.08 | 0.08 | 81 | 1019.9 |
| 20260905143107 | 21 | 276 | 0.0 | 3.2 | 0.08 | 0.08 | 0.08 | 81 | 1020.0 |
| 20260905142107 | 21 | 353 | 0.0 | 3.2 | 0.08 | 0.08 | 0.08 | 80 | 1020.1 |
| 20260905141003 | 22 | 2 | 0.0 | 1.6 | 0.08 | 0.08 | 0.08 | 76 | 1020.1 |
| 20260905140004 | 22 | 2 | 0.0 | 0.0 | 0.00 | 0.00 | 0.00 | 72 | 1020.1 |
| 20260905135106 | 21 | 2 | 0.0 | 1.6 | 0.00 | 0.00 | 0.00 | 68 | 1020.2 |
| 20260905134004 | 22 | 10 | 1.6 | 4.8 | 0.00 | 0.00 | 0.00 | 69 | 1020.3 |
| 20260905133107 | 22 | 357 | 1.6 | 6.4 | 0.00 | 0.00 | 0.00 | 66 | 1020.3 |
| 20260905132106 | 22 | 337 | 1.6 | 4.8 | 0.00 | 0.00 | 0.00 | 65 | 1020.2 |
| 20260905131003 | 23 | 335 | 3.2 | 3.2 | 0.00 | 0.00 | 0.00 | 60 | 1020.0 |
| 20260905130004 | 23 | 2 | 3.2 | 6.4 | 0.00 | 0.00 | 0.00 | 56 | 1020.0 |
| 20260905125003 | 24 | 358 | 1.6 | 11.3 | 0.00 | 0.00 | 0.00 | 50 | 1020.2 |
| 20260905124106 | 24 | 65 | 1.6 | 6.4 | 0.00 | 0.00 | 0.00 | 49 | 1020.0 |
| 20260905123106 | 25 | 76 | 1.6 | 3.2 | 0.00 | 0.00 | 0.00 | 51 | 1019.8 |
| 20260905122107 | 25 | 95 | 3.2 | 8.0 | 0.00 | 0.00 | 0.00 | 50 | 1019.7 |
| 20260905121003 | 25 | 52 | 3.2 | 12.9 | 0.00 | 0.00 | 0.00 | 47 | 1019.5 |
| 20260905120003 | 25 | 56 | 3.2 | 11.3 | 0.00 | 0.00 | 0.00 | 46 | 1019.5 |
| 20260905115003 | 25 | 65 | 3.2 | 14.5 | 0.00 | 0.00 | 0.00 | 47 | 1019.7 |
| 20260905114107 | 26 | 53 | 3.2 | 16.1 | 0.00 | 0.00 | 0.00 | 46 | 1019.6 |
| 20260905113004 | 26 | 76 | 3.2 | 9.7 | 0.00 | 0.00 | 0.00 | 46 | 1019.6 |
| 20260905112106 | 26 | 60 | 4.8 | 14.5 | 0.00 | 0.00 | 0.00 | 45 | 1019.5 |
| 20260905111106 | 26 | 81 | 6.4 | 16.1 | 0.00 | 0.00 | 0.00 | 45 | 1019.5 |
| 20260905110004 | 26 | 43 | 6.4 | 16.1 | 0.00 | 0.00 | 0.00 | 45 | 1019.5 |
| 20260905105106 | 26 | 39 | 6.4 | 17.7 | 0.00 | 0.00 | 0.00 | 48 | 1019.4 |
| 20260905104106 | 26 | 52 | 6.4 | 12.9 | 0.00 | 0.00 | 0.00 | 44 | 1019.5 |
| 20260905103106 | 25 | 55 | 4.8 | 17.7 | 0.00 | 0.00 | 0.00 | 47 | 1019.3 |
| 20260905102004 | 25 | 69 | 4.8 | 12.9 | 0.00 | 0.00 | 0.00 | 50 | 1019.3 |
| 20260905101107 | 25 | 65 | 4.8 | 16.1 | 0.00 | 0.00 | 0.00 | 48 | 1019.4 |
| 20260905100003 | 25 | 66 | 6.4 | 16.1 | 0.00 | 0.00 | 0.00 | 50 | 1019.5 |
| 20260905095003 | 25 | 62 | 6.4 | 24.1 | 0.00 | 0.00 | 0.00 | 48 | 1019.4 |
| 20260905094004 | 25 | 77 | 4.8 | 17.7 | 0.00 | 0.00 | 0.00 | 48 | 1019.4 |
| 20260905093003 | 25 | 73 | 4.8 | 16.1 | 0.00 | 0.00 | 0.00 | 52 | 1019.3 |
| 20260905092003 | 25 | 104 | 4.8 | 17.7 | 0.00 | 0.00 | 0.00 | 51 | 1019.3 |
| 20260905091003 | 25 | 79 | 4.8 | 17.7 | 0.00 | 0.00 | 0.00 | 54 | 1019.1 |
| 20260905090004 | 26 | 82 | 4.8 | 19.3 | 0.00 | 0.00 | 0.00 | 55 | 1018.9 |
| 20260905085004 | 26 | 109 | 4.8 | 16.1 | 0.00 | 0.00 | 0.00 | 57 | 1018.7 |
| 20260905084106 | 26 | 127 | 6.4 | 19.3 | 0.00 | 0.00 | 0.00 | 58 | 1018.6 |
| 20260905083106 | 26 | 56 | 8.0 | 19.3 | 0.00 | 0.00 | 0.00 | 56 | 1018.6 |
| 20260905082003 | 27 | 66 | 8.0 | 25.7 | 0.00 | 0.00 | 0.00 | 56 | 1018.1 |
| 20260905081107 | 27 | 62 | 6.4 | 25.7 | 0.00 | 0.00 | 0.00 | 57 | 1017.6 |
| 20260905080106 | 28 | 41 | 4.8 | 12.9 | 0.00 | 0.00 | 0.00 | 57 | 1016.8 |
| 20260905075106 | 27 | 29 | 3.2 | 8.0 | 0.00 | 0.00 | 0.00 | 60 | 1016.5 |
| 20260905074106 | 27 | 27 | 4.8 | 6.4 | 0.00 | 0.00 | 0.00 | 62 | 1016.4 |
| 20260905073004 | 27 | 28 | 4.8 | 11.3 | 0.00 | 0.00 | 0.00 | 59 | 1016.2 |
| 20260905072003 | 27 | 267 | 1.6 | 6.4 | 0.00 | 0.00 | 0.00 | 60 | 1016.1 |
| 20260905071003 | 27 | 182 | 1.6 | 4.8 | 0.00 | 0.00 | 0.00 | 58 | 1015.9 |
| 20260905070003 | 26 | 182 | 1.6 | 4.8 | 0.00 | 0.00 | 0.00 | 59 | 1015.8 |
| 20260905065004 | 26 | 161 | 3.2 | 4.8 | 0.00 | 0.00 | 0.00 | 60 | 1015.6 |
| 20260905064107 | 26 | 238 | 3.2 | 11.3 | 0.00 | 0.00 | 0.00 | 61 | 1015.4 |
| 20260905063003 | 25 | 245 | 1.6 | 11.3 | 0.00 | 0.00 | 0.00 | 62 | 1015.4 |
| 20260905062107 | 25 | 186 | 1.6 | 6.4 | 0.00 | 0.00 | 0.00 | 63 | 1015.6 |
| 20260905061003 | 25 | 22 | 1.6 | 9.7 | 0.00 | 0.00 | 0.00 | 64 | 1015.5 |
| 20260905060106 | 24 | 232 | 1.6 | 8.0 | 0.00 | 0.00 | 0.00 | 63 | 1015.5 |
| 20260905055106 | 24 | 237 | 3.2 | 11.3 | 0.00 | 0.00 | 0.00 | 64 | 1015.5 |
| 20260905054004 | 24 | 231 | 3.2 | 12.9 | 0.00 | 0.00 | 0.00 | 63 | 1015.4 |
| 20260905053003 | 24 | 244 | 3.2 | 11.3 | 0.00 | 0.00 | 0.00 | 64 | 1015.4 |
| 20260905052003 | 24 | 257 | 3.2 | 6.4 | 0.00 | 0.00 | 0.00 | 63 | 1015.1 |
| 20260905051106 | 23 | 248 | 3.2 | 9.7 | 0.00 | 0.00 | 0.00 | 64 | 1015.0 |
| 20260905050107 | 23 | 239 | 3.2 | 12.9 | 0.00 | 0.00 | 0.00 | 64 | 1014.8 |
| 20260905045107 | 23 | 224 | 3.2 | 6.4 | 0.00 | 0.00 | 0.00 | 64 | 1014.7 |
| 20260905044106 | 23 | 225 | 4.8 | 9.7 | 0.00 | 0.00 | 0.00 | 64 | 1014.6 |
| 20260905043004 | 23 | 238 | 6.4 | 16.1 | 0.00 | 0.00 | 0.00 | 64 | 1014.5 |
| 20260905042107 | 23 | 219 | 4.8 | 12.9 | 0.00 | 0.00 | 0.00 | 64 | 1014.6 |
| 20260905041003 | 23 | 232 | 4.8 | 14.5 | 0.00 | 0.00 | 0.00 | 64 | 1014.6 |
| 20260905040107 | 23 | 242 | 4.8 | 17.7 | 0.00 | 0.00 | 0.00 | 62 | 1014.4 |
| 20260905035107 | 24 | 240 | 6.4 | 14.5 | 0.00 | 0.00 | 0.00 | 61 | 1014.3 |
| 20260905034003 | 24 | 245 | 8.0 | 17.7 | 0.00 | 0.00 | 0.00 | 60 | 1014.1 |
| 20260905033003 | 25 | 253 | 9.7 | 22.5 | 0.00 | 0.00 | 0.00 | 60 | 1014.2 |
| 20260905032004 | 25 | 252 | 9.7 | 20.9 | 0.00 | 0.00 | 0.00 | 60 | 1014.0 |
| 20260905031003 | 24 | 255 | 9.7 | 22.5 | 0.00 | 0.00 | 0.00 | 61 | 1014.0 |
| 20260905030003 | 24 | 255 | 8.0 | 19.3 | 0.00 | 0.00 | 0.00 | 62 | 1014.0 |
| 20260905025003 | 24 | 248 | 8.0 | 16.1 | 0.00 | 0.00 | 0.00 | 62 | 1014.1 |
| 20260905024004 | 23 | 255 | 8.0 | 20.9 | 0.00 | 0.00 | 0.00 | 62 | 1014.1 |